Simultaneous Nadir Overpasses (SNOs) Predictions

Prediction of SNOs between GOES-15 and METOP-B Satellite Orbit:

Table of predicted SNOs for the next 14.0 days since TLE Epoch: 5/25/2024
Index Date Time (GOES-15) GOES-15 Lat,Lon METOP-B Lat,Lon Distance(km) Time Diff (sec)
1 05/25/2024 17:18:16 0.19, 61.68 0.11, 61.41 31.70 80
2 05/28/2024 05:13:42 -0.20, 61.63 -0.27, 61.84 24.20 80
3 05/29/2024 17:35:18 0.19, 61.62 -0.80, 57.26 497.58 80
4 05/30/2024 17:11:56 0.21, 61.61 0.36, 62.25 73.58 80
5 06/01/2024 05:33:22 -0.19, 61.57 0.68, 57.70 441.56 80
6 06/02/2024 05:10:00 -0.20, 61.56 -0.43, 62.70 129.28 80
7 06/03/2024 17:31:36 0.19, 61.56 -0.56, 58.10 392.76 80
8 06/04/2024 17:08:14 0.20, 61.55 0.56, 63.10 177.94 80
9 06/06/2024 05:29:40 -0.18, 61.52 0.47, 58.55 337.89 80
10 06/07/2024 05:06:18 -0.20, 61.52 -0.65, 63.55 232.17 80
